Lewistown, MT

9:14 PM MDT on July 29, 2016 (GMT -0600)
Lewistown Municipal

Weather History for KLWT - January, 2012

Change the Weather History Date:

Thursday, January 26, 2012

  Actual Average Record
Temperature  
Mean Temperature 33 °F 24 °F  
Max Temperature 41 °F 35 °F 60 °F (1906)
Min Temperature 25 °F 14 °F -28 °F (1969)
Degree Days  
Heating Degree Days 32 41  
Month to date heating degree days 1050 1078  
Since 1 July heating degree days 4040 4500  
Cooling Degree Days 0 0  
Month to date cooling degree days 0 0  
Year to date cooling degree days 0 0  
Moisture  
Dew Point 24 °F    
Average Humidity 70    
Maximum Humidity 92    
Minimum Humidity 48    
Precipitation  
Precipitation 0.03 in 0.02 in 0.38 in (2002)
Month to date precipitation 0.57 0.49  
Year to date precipitation 0.57 0.49  
Snow  
Snow 0.00 in - - ()
Snow Depth 2.00 in    
Sea Level Pressure  
Sea Level Pressure 29.88 in    
Wind  
Wind Speed 14 mph (West)    
Max Wind Speed 33 mph    
Max Gust Speed 52 mph    
Visibility 6 miles    
Events Fog , Snow    
T = Trace of Precipitation, MM = Missing Value Source: NWS Daily Summary

Daily Weather History Graph

Daily Weather History Graph

Search for Another Location

Airport or City:

Trip Planner

Search our weather history database for the weather conditions in past years. The results will help you decide how hot, cold, wet, or windy it might be!

Date:

Astronomy

Jan. 26, 2012 Rise Set
Actual Time 7:50 AM MST 5:10 PM MST
Civil Twilight 7:17 AM MST 5:44 PM MST
Nautical Twilight 6:40 AM MST 6:21 PM MST
Astronomical Twilight 6:04 AM MST 6:57 PM MST
Moon 9:01 AM MST (1/26) 9:26 PM MST (1/26)
Length of Visible Light 10h 26m
Length of Day
9h 20m
Waxing Crescent, 13% of the Moon is Illuminated
Jan 26
Waxing Crescent
Jan 30
First Quarter
Feb 7
Full
Feb 14
Last Quarter
Feb 21
New

Hourly Weather History & Observations

Time (MST) Temp. Windchill Dew Point Humidity Pressure Visibility Wind Dir Wind Speed Gust Speed Precip Events Conditions
12:54 AM 27.0 °F 18.7 °F 18.0 °F 69% 30.04 in 10.0 mi SSW 8.1 mph - N/A   Scattered Clouds
1:54 AM 30.0 °F 19.1 °F 19.0 °F 64% 30.03 in 10.0 mi West 15.0 mph - N/A   Clear
2:54 AM 34.0 °F 28.0 °F 21.0 °F 59% 30.01 in 10.0 mi WNW 6.9 mph - N/A   Scattered Clouds
3:54 AM 28.0 °F 16.1 °F 19.9 °F 72% 30.03 in 10.0 mi SSW 16.1 mph - N/A   Mostly Cloudy
4:54 AM 30.0 °F 20.0 °F 19.9 °F 66% 30.02 in 10.0 mi SW 12.7 mph - N/A   Clear
5:54 AM 28.9 °F 21.9 °F 19.0 °F 67% 29.99 in 10.0 mi SSW 6.9 mph - N/A   Clear
6:54 AM 28.9 °F 19.8 °F 19.9 °F 69% 29.96 in 10.0 mi SW 10.4 mph - N/A   Clear
7:54 AM 30.0 °F 25.2 °F 19.9 °F 66% 29.91 in 10.0 mi SSW 4.6 mph - N/A   Clear
8:54 AM 28.9 °F 23.9 °F 21.9 °F 75% 29.90 in 10.0 mi ESE 4.6 mph - N/A   Mostly Cloudy
9:54 AM 37.0 °F 28.9 °F 24.1 °F 59% 29.84 in 10.0 mi SW 12.7 mph - N/A   Overcast
10:54 AM 37.9 °F 27.6 °F 25.0 °F 60% 29.79 in 10.0 mi SW 20.7 mph - N/A   Overcast
11:54 AM 39.0 °F 29.6 °F 27.0 °F 62% 29.76 in 10.0 mi SW 18.4 mph - N/A   Overcast
12:54 PM 39.9 °F 31.1 °F 27.0 °F 60% 29.72 in 10.0 mi WSW 17.3 mph - N/A   Overcast
1:54 PM 39.0 °F 31.8 °F 28.9 °F 67% 29.68 in 10.0 mi SW 11.5 mph - N/A   Mostly Cloudy
2:54 PM 39.0 °F 33.4 °F 28.9 °F 67% 29.65 in 10.0 mi WSW 8.1 mph - N/A   Overcast
3:54 PM 39.9 °F 32.5 °F 27.0 °F 60% 29.69 in 10.0 mi WNW 12.7 mph - N/A   Mostly Cloudy
4:54 PM 39.0 °F 29.0 °F 21.9 °F 50% 29.70 in 10.0 mi WNW 20.7 mph 26.5 mph N/A   Scattered Clouds
5:54 PM 36.0 °F 29.0 °F 24.1 °F 62% 29.74 in 10.0 mi WNW 9.2 mph - N/A   Overcast
6:54 PM 33.1 °F 23.0 °F 28.0 °F 82% 29.82 in 10.0 mi NW 15.0 mph 25.3 mph N/A   Overcast
7:54 PM 28.9 °F 19.2 °F 26.1 °F 89% 29.86 in 10.0 mi West 11.5 mph - N/A   Clear
8:54 PM 32.0 °F 17.9 °F 17.1 °F 54% 29.87 in 10.0 mi WNW 28.8 mph 38.0 mph N/A   Overcast
9:31 PM 30.2 °F 15.7 °F 21.2 °F 69% 29.84 in 1.8 mi NW 27.6 mph 51.8 mph 0.00 in Snow Light Snow
9:37 PM 28.4 °F 15.4 °F 24.8 °F 86% 29.84 in 0.8 mi NW 19.6 mph 42.6 mph 0.00 in Snow Light Snow
9:47 PM 28.4 °F 14.1 °F 26.6 °F 93% 29.86 in 0.5 mi NW 24.2 mph 33.4 mph 0.00 in Fog , Snow Snow
9:54 PM 28.0 °F 15.3 °F 26.1 °F 92% 29.93 in 0.5 mi NW 18.4 mph 33.4 mph 0.00 in Fog , Snow Snow
10:13 PM 26.6 °F 10.6 °F 26.6 °F 100% 29.88 in 0.2 mi WNW 28.8 mph 35.7 mph 0.01 in Fog , Snow Heavy Snow
10:26 PM 26.6 °F 10.8 °F 26.6 °F 100% 29.88 in 0.2 mi WNW 27.6 mph 39.1 mph 0.02 in Fog , Snow Heavy Snow
10:38 PM 26.6 °F 11.4 °F 24.8 °F 93% 29.89 in 1.0 mi WNW 25.3 mph 33.4 mph 0.02 in Snow Light Snow
10:54 PM 27.0 °F 11.0 °F 25.0 °F 92% 29.98 in 0.5 mi WNW 28.8 mph 40.3 mph 0.02 in Fog , Snow Snow
11:01 PM 26.6 °F 10.6 °F 24.8 °F 93% 29.91 in 0.2 mi WNW 28.8 mph 40.3 mph 0.01 in Fog , Snow Heavy Snow
11:21 PM 26.6 °F 12.7 °F 24.8 °F 93% 29.93 in 0.8 mi NW 20.7 mph 32.2 mph 0.01 in Snow Light Snow
11:41 PM 26.6 °F 12.7 °F 24.8 °F 93% 29.95 in 1.0 mi NW 20.7 mph 33.4 mph 0.01 in Snow Light Snow
11:49 PM 24.8 °F 9.3 °F 24.8 °F 100% 29.96 in 1.0 mi NW 24.2 mph 32.2 mph 0.01 in Snow Light Snow
11:54 PM 25.0 °F 11.7 °F 23.0 °F 92% 30.04 in 1.2 mi NW 17.3 mph 32.2 mph 0.01 in Snow Light Snow